RYR5987 LEPA-EGNV

Flight info

Callsign RYR5987
Flight time 2h 13m
Altitude 36000
Route DRAGO N863 GIROM DCT GONUP DCT TUPAR UN861 ANG DCT AKIKI UN867 AVANT UM184 HEMEL/N0433F350 Q3 MOGLI/N0437F340 L613 MAMUL Y250 GASKO
Aircraft A320/M-SDE3FGHIRWY/LB1

Departure

Time 2026-04-12 10:12
Airport Palma de Mallorca Airport (LEPA)

Arrival

Time 2026-04-12 12:26
Airport Teesside International Airport (EGNV)
Time Latitude Longitude Altitude Speed Heading
2026-04-12 09:36 39.55273 2.72939 30 ft 0 kts 193°
2026-04-12 10:05 39.55257 2.72935 30 ft 5 kts 184°
2026-04-12 10:06 39.55231 2.72952 30 ft 6 kts 125°
2026-04-12 10:06 39.55244 2.73023 30 ft 10 kts 58°
2026-04-12 10:06 39.55284 2.73108 30 ft 13 kts 58°
2026-04-12 10:06 39.55335 2.73216 30 ft 14 kts 57°
2026-04-12 10:07 39.55393 2.73337 30 ft 18 kts 57°
2026-04-12 10:07 39.55462 2.73482 30 ft 19 kts 58°
2026-04-12 10:07 39.55495 2.73597 30 ft 11 kts 129°
2026-04-12 10:07 39.55395 2.73679 30 ft 21 kts 148°
2026-04-12 10:08 39.55268 2.73780 30 ft 22 kts 148°
2026-04-12 10:08 39.55130 2.73888 30 ft 24 kts 147°
2026-04-12 10:08 39.54985 2.74004 30 ft 25 kts 150°
2026-04-12 10:08 39.54840 2.74119 30 ft 18 kts 147°
2026-04-12 10:09 39.54759 2.74060 30 ft 18 kts 237°
2026-04-12 10:09 39.54690 2.73912 30 ft 19 kts 236°
2026-04-12 10:09 39.54601 2.73724 30 ft 28 kts 239°
2026-04-12 10:09 39.54504 2.73521 30 ft 26 kts 239°
2026-04-12 10:10 39.54413 2.73327 30 ft 24 kts 239°
2026-04-12 10:10 39.54328 2.73150 30 ft 22 kts 238°
2026-04-12 10:10 39.54252 2.73061 30 ft 11 kts 176°
2026-04-12 10:10 39.54219 2.73151 30 ft 14 kts 95°
2026-04-12 10:11 39.54212 2.73292 30 ft 18 kts 93°
2026-04-12 10:11 39.54254 2.73443 30 ft 22 kts 59°
2026-04-12 10:11 39.54438 2.73829 30 ft 84 kts 58°
2026-04-12 10:11 39.54850 2.74702 38 ft 139 kts 58°
2026-04-12 10:12 39.55377 2.75801 577 ft 146 kts 53°
2026-04-12 10:12 39.55915 2.76948 1261 ft 150 kts 59°
2026-04-12 10:12 39.56471 2.78180 1671 ft 171 kts 60°
2026-04-12 10:12 39.57110 2.79600 2078 ft 191 kts 59°
2026-04-12 10:13 39.57789 2.81094 2984 ft 190 kts 57°
2026-04-12 10:13 39.58461 2.82577 3833 ft 192 kts 58°
2026-04-12 10:13 39.59147 2.84090 4592 ft 197 kts 59°
2026-04-12 10:13 39.59844 2.85624 5316 ft 202 kts 59°
2026-04-12 10:14 39.60567 2.87212 6076 ft 207 kts 60°
2026-04-12 10:14 39.61308 2.88837 6818 ft 211 kts 60°
2026-04-12 10:14 39.62064 2.90491 7584 ft 215 kts 60°
2026-04-12 10:14 39.63043 2.91973 8335 ft 222 kts 33°
2026-04-12 10:15 39.64584 2.92381 9044 ft 238 kts 354°
2026-04-12 10:15 39.66085 2.91393 9746 ft 255 kts 316°
2026-04-12 10:15 39.66941 2.89340 10417 ft 266 kts 286°
2026-04-12 10:15 39.67300 2.87001 11142 ft 269 kts 279°
2026-04-12 10:16 39.67628 2.84586 11880 ft 272 kts 280°
2026-04-12 10:16 39.67993 2.82169 12627 ft 274 kts 279°
2026-04-12 10:16 39.68315 2.79718 13342 ft 277 kts 276°
2026-04-12 10:16 39.68510 2.77216 14046 ft 279 kts 272°
2026-04-12 10:17 39.68793 2.74703 14707 ft 285 kts 281°
2026-04-12 10:17 39.69404 2.72130 14914 ft 310 kts 292°
2026-04-12 10:17 39.70293 2.69511 15085 ft 332 kts 294°
2026-04-12 10:17 39.71267 2.66662 15229 ft 356 kts 294°
2026-04-12 10:18 39.72303 2.63627 15380 ft 377 kts 293°
2026-04-12 10:18 39.73374 2.60473 15838 ft 384 kts 294°
2026-04-12 10:18 39.74463 2.57270 16408 ft 390 kts 293°
2026-04-12 10:18 39.75567 2.54023 17036 ft 393 kts 293°
2026-04-12 10:19 39.76657 2.50784 17618 ft 397 kts 293°
2026-04-12 10:19 39.77772 2.47470 18215 ft 401 kts 293°
2026-04-12 10:19 39.78893 2.44140 18823 ft 404 kts 293°
2026-04-12 10:19 39.80022 2.40787 19442 ft 406 kts 293°
2026-04-12 10:20 39.81161 2.37403 20049 ft 408 kts 293°
2026-04-12 10:20 39.82305 2.33999 20642 ft 411 kts 293°
2026-04-12 10:20 39.83436 2.30616 21208 ft 413 kts 293°
2026-04-12 10:20 39.84565 2.27170 21794 ft 415 kts 292°
2026-04-12 10:21 39.85688 2.23695 22356 ft 417 kts 292°
2026-04-12 10:21 39.86811 2.20200 22871 ft 419 kts 292°
2026-04-12 10:21 39.87938 2.16684 23379 ft 421 kts 292°
2026-04-12 10:21 39.89055 2.13203 23871 ft 422 kts 292°
2026-04-12 10:22 39.90194 2.09658 24353 ft 424 kts 293°
2026-04-12 10:22 39.91339 2.06098 24784 ft 427 kts 293°
2026-04-12 10:22 39.92490 2.02509 25175 ft 430 kts 293°
2026-04-12 10:22 39.93647 1.98897 25559 ft 433 kts 293°
2026-04-12 10:23 39.94811 1.95261 25919 ft 437 kts 293°
2026-04-12 10:23 39.95988 1.91587 26287 ft 440 kts 293°
2026-04-12 10:23 39.97153 1.87946 26631 ft 443 kts 293°
2026-04-12 10:23 39.98385 1.84247 26975 ft 445 kts 297°
2026-04-12 10:24 40.00008 1.80797 27294 ft 447 kts 308°
2026-04-12 10:24 40.02066 1.77754 27619 ft 449 kts 318°
2026-04-12 10:24 40.04516 1.75209 27954 ft 449 kts 328°
2026-04-12 10:24 40.07274 1.73262 28258 ft 450 kts 339°
2026-04-12 10:25 40.10151 1.71785 28559 ft 451 kts 341°
2026-04-12 10:25 40.13089 1.70290 28856 ft 454 kts 341°
2026-04-12 10:25 40.16041 1.68775 29138 ft 456 kts 340°
2026-04-12 10:25 40.19001 1.67244 29424 ft 458 kts 340°
2026-04-12 10:26 40.21975 1.65705 29700 ft 460 kts 340°
2026-04-12 10:26 40.24969 1.64157 29959 ft 462 kts 340°
2026-04-12 10:26 40.27967 1.62612 30209 ft 465 kts 340°
2026-04-12 10:26 40.30983 1.61059 30440 ft 467 kts 340°
2026-04-12 10:27 40.34019 1.59495 30654 ft 469 kts 340°
2026-04-12 10:27 40.37035 1.57939 30851 ft 472 kts 340°
2026-04-12 10:27 40.40107 1.56351 31045 ft 474 kts 340°
2026-04-12 10:27 40.43187 1.54754 31313 ft 475 kts 340°
2026-04-12 10:28 40.46267 1.53155 31594 ft 475 kts 340°
2026-04-12 10:28 40.49309 1.51574 31859 ft 475 kts 340°
2026-04-12 10:28 40.52389 1.49971 32128 ft 476 kts 340°
2026-04-12 10:28 40.55479 1.48362 32365 ft 477 kts 340°
2026-04-12 10:29 40.58574 1.46749 32629 ft 477 kts 340°
2026-04-12 10:29 40.61659 1.45141 32866 ft 479 kts 340°
2026-04-12 10:29 40.64724 1.43542 33126 ft 479 kts 339°
2026-04-12 10:29 40.67823 1.41925 33376 ft 479 kts 339°
2026-04-12 10:30 40.70940 1.40299 33615 ft 480 kts 339°
2026-04-12 10:30 40.74049 1.38677 33857 ft 481 kts 339°
2026-04-12 10:30 40.77154 1.37056 34128 ft 481 kts 339°
2026-04-12 10:30 40.80267 1.35427 34398 ft 480 kts 339°
2026-04-12 10:31 40.83367 1.33801 34691 ft 479 kts 339°
2026-04-12 10:31 40.86466 1.32172 34981 ft 478 kts 339°
2026-04-12 10:31 40.89553 1.30545 35272 ft 476 kts 338°
2026-04-12 10:31 40.92630 1.28926 35526 ft 475 kts 338°
2026-04-12 10:32 40.95668 1.27328 35769 ft 474 kts 338°
2026-04-12 10:32 40.98738 1.25708 35896 ft 473 kts 338°
2026-04-12 10:32 41.01791 1.24096 35919 ft 471 kts 338°
2026-04-12 10:33 41.07885 1.20875 35915 ft 470 kts 338°
2026-04-12 10:33 41.13967 1.17821 35923 ft 470 kts 344°
2026-04-12 10:34 41.20427 1.16545 35925 ft 470 kts 356°
2026-04-12 10:34 41.26963 1.15866 35923 ft 470 kts 356°
2026-04-12 10:35 41.33468 1.15176 35920 ft 471 kts 356°
2026-04-12 10:35 41.40008 1.14485 35918 ft 471 kts 356°
2026-04-12 10:36 41.46554 1.13795 35925 ft 471 kts 355°
2026-04-12 10:36 41.53057 1.13117 35931 ft 471 kts 355°
2026-04-12 10:37 41.59603 1.12430 35938 ft 471 kts 355°
2026-04-12 10:37 41.66144 1.11734 35946 ft 471 kts 355°
2026-04-12 10:38 41.72647 1.11042 35955 ft 471 kts 355°
2026-04-12 10:38 41.79194 1.10356 35960 ft 472 kts 355°
2026-04-12 10:39 41.85751 1.09657 35966 ft 472 kts 355°
2026-04-12 10:39 41.92305 1.08944 35969 ft 472 kts 355°
2026-04-12 10:40 41.98823 1.08242 35972 ft 472 kts 355°
2026-04-12 10:40 42.05389 1.07548 35965 ft 473 kts 355°
2026-04-12 10:41 42.11967 1.06856 35957 ft 474 kts 354°
2026-04-12 10:41 42.18529 1.06141 35958 ft 476 kts 354°
2026-04-12 10:42 42.25147 1.05417 35961 ft 476 kts 354°
2026-04-12 10:42 42.31769 1.04703 35963 ft 477 kts 354°
2026-04-12 10:43 42.41683 1.03639 35968 ft 478 kts 354°
2026-04-12 10:43 42.48329 1.02914 35973 ft 479 kts 354°
2026-04-12 10:44 42.54948 1.02186 35975 ft 479 kts 354°
2026-04-12 10:44 42.61600 1.01455 35983 ft 479 kts 354°
2026-04-12 10:45 42.68259 1.00728 35993 ft 480 kts 354°
2026-04-12 10:45 42.74879 1.00008 35995 ft 480 kts 354°
2026-04-12 10:46 42.81426 0.98383 36003 ft 477 kts 343°
2026-04-12 10:46 42.87880 0.96153 36012 ft 478 kts 343°
2026-04-12 10:47 42.94344 0.93926 36023 ft 479 kts 343°
2026-04-12 10:47 43.00765 0.91709 36032 ft 479 kts 343°
2026-04-12 10:48 43.07233 0.89466 36046 ft 479 kts 343°
2026-04-12 10:48 43.13714 0.87212 36060 ft 481 kts 343°
2026-04-12 10:49 43.20176 0.84963 36064 ft 481 kts 343°
2026-04-12 10:49 43.26665 0.82706 36071 ft 481 kts 343°
2026-04-12 10:50 43.33171 0.80433 36078 ft 482 kts 342°
2026-04-12 10:50 43.39677 0.78149 36089 ft 482 kts 342°
2026-04-12 10:51 43.46147 0.75858 36094 ft 482 kts 341°
2026-04-12 10:51 43.52578 0.73179 36099 ft 481 kts 338°
2026-04-12 10:52 43.58918 0.70162 36104 ft 481 kts 337°
2026-04-12 10:52 43.65228 0.67155 36109 ft 482 kts 337°
2026-04-12 10:53 43.71610 0.64220 36110 ft 483 kts 338°
2026-04-12 10:53 43.77956 0.61345 36111 ft 483 kts 338°
2026-04-12 10:54 43.84341 0.58429 36109 ft 483 kts 338°
2026-04-12 10:54 43.90726 0.55497 36112 ft 483 kts 337°
2026-04-12 10:55 43.97109 0.52545 36111 ft 483 kts 337°
2026-04-12 10:55 44.03462 0.49597 36104 ft 483 kts 336°
2026-04-12 10:56 44.09851 0.46632 36102 ft 484 kts 337°
2026-04-12 10:56 44.16258 0.43661 36107 ft 485 kts 336°
2026-04-12 10:57 44.22615 0.40695 36108 ft 485 kts 336°
2026-04-12 10:57 44.29024 0.37699 36112 ft 485 kts 336°
2026-04-12 10:58 44.35438 0.34707 36113 ft 485 kts 336°
2026-04-12 10:58 44.41801 0.31735 36116 ft 485 kts 336°
2026-04-12 10:59 44.48195 0.28729 36114 ft 484 kts 336°
2026-04-12 10:59 44.53508 0.26220 36116 ft 485 kts 336°
2026-04-12 11:00 44.59914 0.23195 36118 ft 485 kts 336°
2026-04-12 11:00 44.66322 0.20167 36124 ft 485 kts 336°
2026-04-12 11:01 44.72686 0.17147 36124 ft 485 kts 336°
2026-04-12 11:01 44.79094 0.14097 36119 ft 486 kts 336°
2026-04-12 11:02 44.85508 0.11040 36121 ft 486 kts 336°
2026-04-12 11:02 44.91879 0.08002 36125 ft 486 kts 336°
2026-04-12 11:03 44.98295 0.04939 36121 ft 487 kts 335°
2026-04-12 11:03 45.04726 0.01854 36119 ft 486 kts 335°
2026-04-12 11:04 45.11134 -0.01229 36120 ft 487 kts 335°
2026-04-12 11:04 45.17522 -0.04310 36113 ft 488 kts 335°
2026-04-12 11:05 45.23957 -0.07409 36116 ft 488 kts 335°
2026-04-12 11:05 45.30406 -0.10531 36112 ft 488 kts 334°
2026-04-12 11:06 45.36804 -0.13642 36106 ft 489 kts 334°
2026-04-12 11:06 45.43240 -0.16782 36102 ft 489 kts 334°
2026-04-12 11:07 45.49689 -0.19922 36104 ft 490 kts 334°
2026-04-12 11:07 45.56148 -0.23070 36105 ft 490 kts 334°
2026-04-12 11:08 45.62560 -0.26219 36100 ft 490 kts 334°
2026-04-12 11:08 45.69015 -0.29394 36099 ft 490 kts 334°
2026-04-12 11:09 45.75477 -0.32586 36101 ft 490 kts 334°
2026-04-12 11:09 45.81929 -0.35770 36106 ft 491 kts 334°
2026-04-12 11:10 45.88350 -0.38943 36104 ft 491 kts 334°
2026-04-12 11:10 45.94827 -0.42156 36109 ft 492 kts 334°
2026-04-12 11:11 46.01303 -0.45380 36110 ft 492 kts 334°
2026-04-12 11:11 46.07741 -0.48595 36112 ft 492 kts 333°
2026-04-12 11:12 46.14225 -0.51833 36109 ft 492 kts 333°
2026-04-12 11:12 46.20713 -0.55073 36111 ft 492 kts 333°
2026-04-12 11:13 46.27152 -0.58306 36110 ft 492 kts 333°
2026-04-12 11:13 46.33622 -0.61575 36114 ft 492 kts 333°
2026-04-12 11:14 46.40103 -0.64853 36109 ft 492 kts 333°
2026-04-12 11:14 46.46847 -0.66950 36110 ft 505 kts 347°
2026-04-12 11:15 46.53843 -0.68100 36101 ft 506 kts 347°
2026-04-12 11:15 46.60844 -0.69270 36099 ft 506 kts 347°
2026-04-12 11:16 46.67809 -0.70451 36097 ft 506 kts 347°
2026-04-12 11:16 46.74813 -0.71641 36099 ft 505 kts 347°
2026-04-12 11:17 46.81763 -0.72816 36094 ft 506 kts 347°
2026-04-12 11:17 46.88771 -0.74010 36091 ft 505 kts 347°
2026-04-12 11:18 46.95730 -0.75183 36086 ft 505 kts 347°
2026-04-12 11:18 47.02717 -0.76369 36076 ft 505 kts 347°
2026-04-12 11:19 47.09702 -0.77572 36072 ft 505 kts 347°
2026-04-12 11:19 47.16659 -0.78773 36063 ft 506 kts 347°
2026-04-12 11:20 47.23654 -0.79968 36068 ft 506 kts 347°
2026-04-12 11:20 47.30654 -0.81181 36063 ft 506 kts 347°
2026-04-12 11:21 47.37654 -0.82397 36063 ft 506 kts 347°
2026-04-12 11:21 47.44649 -0.83615 36063 ft 513 kts 347°
2026-04-12 11:22 47.51818 -0.84869 36064 ft 522 kts 347°
2026-04-12 11:22 47.59021 -0.86357 36062 ft 525 kts 344°
2026-04-12 11:23 47.66224 -0.88341 36063 ft 528 kts 342°
2026-04-12 11:23 47.73479 -0.90442 36063 ft 531 kts 342°
2026-04-12 11:24 47.80737 -0.92424 36064 ft 534 kts 343°
2026-04-12 11:24 47.88099 -0.94352 36057 ft 537 kts 343°
2026-04-12 11:25 47.95480 -0.96284 36058 ft 539 kts 343°
2026-04-12 11:25 47.99127 -0.97248 36165 ft 537 kts 343°
2026-04-12 11:25 48.02789 -0.98212 36495 ft 530 kts 343°
2026-04-12 11:26 48.06393 -0.99149 36842 ft 523 kts 343°
2026-04-12 11:26 48.09961 -1.00071 37197 ft 516 kts 343°
2026-04-12 11:26 48.13473 -1.00978 37571 ft 508 kts 344°
2026-04-12 11:26 48.16947 -1.01868 37936 ft 500 kts 344°
2026-04-12 11:27 48.20358 -1.02734 38302 ft 495 kts 344°
2026-04-12 11:27 48.23741 -1.03593 38679 ft 489 kts 344°
2026-04-12 11:27 48.27033 -1.04431 39079 ft 482 kts 344°
2026-04-12 11:27 48.30318 -1.05274 39469 ft 475 kts 345°
2026-04-12 11:28 48.33553 -1.06094 39872 ft 468 kts 345°
2026-04-12 11:28 48.36751 -1.06895 40284 ft 462 kts 345°
2026-04-12 11:28 48.39902 -1.07676 40659 ft 456 kts 345°
2026-04-12 11:28 48.43028 -1.08449 41016 ft 450 kts 345°
2026-04-12 11:29 48.49178 -1.10270 40441 ft 461 kts 341°
2026-04-12 11:29 48.52319 -1.11420 39638 ft 467 kts 340°
2026-04-12 11:29 48.55491 -1.12549 38912 ft 468 kts 341°
2026-04-12 11:30 48.58694 -1.13587 38201 ft 471 kts 342°
2026-04-12 11:30 48.61927 -1.14532 37410 ft 474 kts 343°
2026-04-12 11:30 48.65189 -1.15416 36577 ft 479 kts 343°
2026-04-12 11:30 48.68450 -1.16262 36199 ft 485 kts 343°
2026-04-12 11:31 48.71815 -1.17136 36000 ft 492 kts 343°
2026-04-12 11:31 48.75207 -1.18031 36051 ft 496 kts 342°
2026-04-12 11:31 48.82026 -1.19891 36036 ft 498 kts 342°
2026-04-12 11:32 48.88810 -1.21783 36025 ft 498 kts 342°
2026-04-12 11:32 48.95634 -1.23702 36028 ft 497 kts 342°
2026-04-12 11:33 49.02444 -1.25615 36029 ft 498 kts 342°
2026-04-12 11:33 49.09213 -1.27512 36032 ft 497 kts 342°
2026-04-12 11:34 49.16029 -1.29415 36034 ft 497 kts 342°
2026-04-12 11:34 49.22823 -1.31331 36034 ft 496 kts 342°
2026-04-12 11:35 49.29614 -1.33260 36034 ft 495 kts 342°
2026-04-12 11:35 49.36358 -1.35175 36030 ft 495 kts 342°
2026-04-12 11:36 49.43126 -1.37087 36027 ft 494 kts 342°
2026-04-12 11:36 49.49899 -1.39010 36024 ft 493 kts 342°
2026-04-12 11:37 49.56646 -1.40935 36020 ft 494 kts 344°
2026-04-12 11:37 49.63590 -1.41311 36014 ft 505 kts 358°
2026-04-12 11:38 49.70565 -1.40679 36010 ft 505 kts 358°
2026-04-12 11:38 49.77577 -1.40039 36012 ft 505 kts 358°
2026-04-12 11:39 49.84590 -1.39416 36009 ft 504 kts 358°
2026-04-12 11:39 49.91600 -1.38795 36008 ft 505 kts 358°
2026-04-12 11:40 49.98643 -1.38163 36003 ft 505 kts 358°
2026-04-12 11:40 50.05599 -1.36669 36000 ft 508 kts
2026-04-12 11:41 50.12589 -1.34932 35999 ft 507 kts
2026-04-12 11:41 50.19519 -1.33191 35999 ft 507 kts
2026-04-12 11:42 50.26490 -1.31437 35988 ft 507 kts
2026-04-12 11:43 50.36915 -1.28834 35980 ft 506 kts
2026-04-12 11:43 50.43874 -1.27082 35978 ft 506 kts
2026-04-12 11:44 50.50687 -1.24351 35970 ft 512 kts 20°
2026-04-12 11:44 50.56922 -1.18885 35960 ft 514 kts 31°
2026-04-12 11:45 50.62986 -1.12848 35956 ft 515 kts 31°
2026-04-12 11:45 50.69046 -1.06819 35955 ft 514 kts 31°
2026-04-12 11:46 50.75061 -1.00801 35956 ft 514 kts 31°
2026-04-12 11:46 50.81144 -0.94862 35946 ft 512 kts 25°
2026-04-12 11:47 50.87759 -0.90878 35943 ft 508 kts 14°
2026-04-12 11:47 50.94487 -0.87419 35941 ft 508 kts 15°
2026-04-12 11:48 51.01176 -0.83941 35936 ft 508 kts 15°
2026-04-12 11:48 51.07895 -0.80432 35935 ft 508 kts 15°
2026-04-12 11:49 51.14630 -0.76920 35929 ft 507 kts 15°
2026-04-12 11:49 51.21302 -0.73420 35925 ft 507 kts 15°
2026-04-12 11:50 51.28023 -0.69891 35925 ft 507 kts 15°
2026-04-12 11:50 51.34744 -0.66366 35924 ft 507 kts 15°
2026-04-12 11:51 51.41401 -0.62856 35925 ft 507 kts 15°
2026-04-12 11:51 51.48105 -0.59300 35923 ft 507 kts 15°
2026-04-12 11:52 51.53678 -0.56337 35919 ft 506 kts 15°
2026-04-12 11:52 51.61456 -0.52190 35915 ft 506 kts 15°
2026-04-12 11:53 51.67016 -0.49222 35913 ft 506 kts 15°
2026-04-12 11:53 51.73702 -0.45637 35906 ft 506 kts 15°
2026-04-12 11:54 51.80398 -0.42113 35896 ft 504 kts 11°
2026-04-12 11:54 51.87209 -0.39960 35887 ft 500 kts
2026-04-12 11:55 51.94074 -0.37943 35883 ft 501 kts
2026-04-12 11:55 52.00943 -0.35892 35878 ft 501 kts
2026-04-12 11:56 52.07752 -0.33855 35899 ft 499 kts
2026-04-12 11:56 52.14582 -0.31799 35902 ft 498 kts
2026-04-12 11:57 52.21391 -0.29741 35901 ft 497 kts
2026-04-12 11:57 52.28209 -0.28676 35890 ft 487 kts 351°
2026-04-12 11:58 52.34731 -0.30837 35858 ft 472 kts 333°
2026-04-12 11:58 52.40513 -0.35485 35858 ft 463 kts 324°
2026-04-12 11:59 52.46186 -0.40539 35853 ft 464 kts 324°
2026-04-12 11:59 52.51868 -0.45616 35843 ft 464 kts 324°
2026-04-12 12:00 52.57516 -0.50666 35839 ft 464 kts 324°
2026-04-12 12:00 52.63188 -0.55759 35837 ft 464 kts 324°
2026-04-12 12:01 52.68858 -0.60887 35830 ft 464 kts 324°
2026-04-12 12:01 52.74494 -0.65994 35833 ft 464 kts 324°
2026-04-12 12:02 52.80177 -0.71134 35830 ft 464 kts 324°
2026-04-12 12:02 52.85849 -0.76277 35832 ft 464 kts 324°
2026-04-12 12:03 52.91511 -0.81434 35833 ft 464 kts 324°
2026-04-12 12:03 52.97139 -0.86582 35832 ft 464 kts 324°
2026-04-12 12:04 53.02795 -0.91784 35830 ft 464 kts 324°
2026-04-12 12:04 53.08459 -0.97005 35825 ft 464 kts 324°
2026-04-12 12:05 53.14092 -1.02205 35524 ft 465 kts 324°
2026-04-12 12:05 53.16922 -1.04823 35277 ft 465 kts 324°
2026-04-12 12:05 53.19747 -1.07441 35025 ft 465 kts 324°
2026-04-12 12:05 53.22585 -1.10075 34212 ft 469 kts 324°
2026-04-12 12:06 53.25420 -1.12715 33269 ft 473 kts 324°
2026-04-12 12:06 53.28292 -1.15387 32537 ft 471 kts 324°
2026-04-12 12:06 53.31151 -1.18042 31923 ft 466 kts 324°
2026-04-12 12:06 53.33971 -1.20667 31276 ft 462 kts 324°
2026-04-12 12:07 53.36772 -1.23278 30649 ft 459 kts 323°
2026-04-12 12:07 53.39594 -1.25767 30029 ft 460 kts 329°
2026-04-12 12:07 53.42587 -1.27544 29433 ft 465 kts 339°
2026-04-12 12:07 53.45785 -1.28499 28812 ft 469 kts 349°
2026-04-12 12:08 53.49036 -1.28903 28193 ft 467 kts 351°
2026-04-12 12:08 53.52265 -1.29290 27570 ft 463 kts 351°
2026-04-12 12:08 53.55495 -1.29707 26468 ft 469 kts 348°
2026-04-12 12:08 53.58616 -1.30830 25723 ft 449 kts 337°
2026-04-12 12:09 53.61435 -1.32829 24727 ft 431 kts 326°
2026-04-12 12:09 53.63983 -1.35383 23673 ft 421 kts 324°
2026-04-12 12:09 53.66438 -1.37882 22670 ft 414 kts 324°
2026-04-12 12:09 53.68914 -1.40317 21669 ft 410 kts 329°
2026-04-12 12:10 53.71583 -1.41969 20718 ft 409 kts 343°
2026-04-12 12:10 53.74413 -1.42571 19763 ft 409 kts 356°
2026-04-12 12:10 53.77238 -1.42187 18800 ft 406 kts
2026-04-12 12:10 53.80034 -1.41603 17832 ft 401 kts
2026-04-12 12:11 53.82786 -1.41028 16899 ft 396 kts
2026-04-12 12:11 53.85503 -1.40462 16027 ft 389 kts
2026-04-12 12:11 53.88113 -1.39920 15528 ft 377 kts
2026-04-12 12:11 53.90714 -1.39383 15015 ft 376 kts
2026-04-12 12:12 53.93309 -1.38853 14486 ft 374 kts
2026-04-12 12:12 53.95891 -1.38327 13984 ft 373 kts
2026-04-12 12:12 53.98471 -1.37798 13463 ft 372 kts
2026-04-12 12:12 54.01042 -1.37267 12942 ft 371 kts
2026-04-12 12:13 54.03564 -1.36745 12462 ft 368 kts
2026-04-12 12:13 54.06098 -1.36219 11996 ft 364 kts
2026-04-12 12:13 54.08596 -1.35699 11369 ft 355 kts
2026-04-12 12:13 54.10995 -1.35190 10863 ft 339 kts
2026-04-12 12:14 54.13315 -1.34694 10375 ft 335 kts
2026-04-12 12:14 54.15596 -1.34217 9982 ft 330 kts
2026-04-12 12:14 54.17839 -1.33746 9857 ft 318 kts
2026-04-12 12:14 54.20007 -1.33288 9642 ft 310 kts
2026-04-12 12:15 54.22136 -1.32841 9224 ft 309 kts
2026-04-12 12:15 54.24271 -1.32390 8864 ft 307 kts
2026-04-12 12:15 54.26312 -1.31310 8464 ft 307 kts 21°
2026-04-12 12:15 54.28156 -1.29454 7776 ft 308 kts 33°
2026-04-12 12:16 54.29839 -1.27260 7096 ft 307 kts 35°
2026-04-12 12:16 54.31519 -1.24997 6627 ft 305 kts 36°
2026-04-12 12:16 54.33165 -1.22751 6271 ft 301 kts 36°
2026-04-12 12:16 54.34804 -1.20528 5842 ft 300 kts 36°
2026-04-12 12:17 54.36429 -1.18315 5441 ft 297 kts 36°
2026-04-12 12:17 54.38038 -1.16114 5181 ft 295 kts 36°
2026-04-12 12:17 54.39643 -1.13929 4980 ft 295 kts 36°
2026-04-12 12:17 54.41249 -1.11737 4781 ft 294 kts 36°
2026-04-12 12:18 54.42855 -1.09559 4580 ft 295 kts 36°
2026-04-12 12:18 54.44437 -1.07411 4446 ft 284 kts 35°
2026-04-12 12:18 54.45960 -1.05365 4300 ft 272 kts 31°
2026-04-12 12:18 54.47630 -1.04115 4134 ft 252 kts
2026-04-12 12:19 54.49270 -1.03990 4072 ft 228 kts 344°
2026-04-12 12:19 54.50722 -1.04777 4017 ft 212 kts 323°
2026-04-12 12:19 54.51882 -1.06239 3973 ft 203 kts 306°
2026-04-12 12:19 54.52779 -1.08091 3928 ft 200 kts 301°
2026-04-12 12:20 54.53654 -1.09960 3887 ft 200 kts 302°
2026-04-12 12:20 54.54532 -1.11823 3846 ft 201 kts 302°
2026-04-12 12:20 54.55414 -1.13698 3809 ft 201 kts 302°
2026-04-12 12:20 54.56292 -1.15566 3758 ft 201 kts 302°
2026-04-12 12:21 54.57159 -1.17409 3617 ft 198 kts 302°
2026-04-12 12:21 54.58020 -1.19236 3413 ft 194 kts 301°
2026-04-12 12:21 54.58866 -1.21041 3178 ft 192 kts 300°
2026-04-12 12:21 54.59477 -1.23034 2792 ft 189 kts 279°
2026-04-12 12:22 54.59562 -1.25252 2517 ft 183 kts 258°
2026-04-12 12:22 54.59154 -1.27269 2322 ft 175 kts 239°
2026-04-12 12:22 54.58413 -1.28854 2081 ft 162 kts 228°
2026-04-12 12:22 54.57695 -1.30204 1881 ft 143 kts 228°
2026-04-12 12:23 54.57063 -1.31397 1704 ft 130 kts 228°
2026-04-12 12:23 54.56472 -1.32509 1565 ft 123 kts 228°
2026-04-12 12:23 54.55899 -1.33587 1389 ft 121 kts 228°
2026-04-12 12:23 54.55327 -1.34662 1220 ft 122 kts 227°
2026-04-12 12:24 54.54760 -1.35728 1054 ft 120 kts 227°
2026-04-12 12:24 54.54193 -1.36778 902 ft 120 kts 227°
2026-04-12 12:24 54.53638 -1.37840 754 ft 118 kts 229°
2026-04-12 12:24 54.53077 -1.38895 579 ft 121 kts 229°
2026-04-12 12:25 54.52520 -1.39935 430 ft 119 kts 228°
2026-04-12 12:25 54.51969 -1.40977 272 ft 117 kts 227°
2026-04-12 12:25 54.51417 -1.42005 130 ft 111 kts 227°
2026-04-12 12:25 54.50979 -1.42828 121 ft 71 kts 227°
2026-04-12 12:26 54.50748 -1.43262 125 ft 36 kts 227°
2026-04-12 12:26 54.50601 -1.43541 121 ft 18 kts 229°
2026-04-12 12:26 54.50581 -1.43560 121 ft 4 kts 56°
2026-04-12 12:26 54.50628 -1.43476 125 ft 15 kts 46°
2026-04-12 12:27 54.50696 -1.43353 130 ft 12 kts 46°
2026-04-12 12:27 54.50762 -1.43233 126 ft 19 kts 47°
2026-04-12 12:27 54.50852 -1.43062 125 ft 20 kts 48°
2026-04-12 12:27 54.50972 -1.42836 123 ft 25 kts 46°
2026-04-12 12:28 54.51053 -1.42792 122 ft 12 kts 296°
2026-04-12 12:28 54.51060 -1.42944 122 ft 14 kts 272°
2026-04-12 12:28 54.51064 -1.43117 126 ft 13 kts 272°
2026-04-12 12:28 54.51057 -1.43221 126 ft 7 kts 247°
2026-04-12 12:29 54.51034 -1.43284 137 ft 7 kts 238°
2026-04-12 12:29 54.51025 -1.43356 128 ft 8 kts 300°
2026-04-12 12:29 54.51072 -1.43407 127 ft 6 kts 329°
2026-04-12 12:29 54.51085 -1.43420 129 ft 0 kts 329°